Content
SEND FEEDBACK

Daily
Averages
Monthly
Summary
Canada

MONTREAL, QUEBEC


Home > North America > Canada > Quebec
Elevation: 118 feet     Latitude: 45 28N     Longitude: 073 45W

WEATHER
 
SELECT A DAY
Number of Records: 198,773;   Date Range: 1/1/95 - 9/17/14
 
SHARE

PRINT THIS DATA

[ ← Previous Day ]
WEATHER ALMANAC - OCTOBER 12, 2013
[ Next Day → ]
[ °C ]   °F
Weather ElementAverageHighLow
Temperature59.3 °F71.6 °F (4:00 pm)48.2 °F (6:00 am)
Dewpoint49.7 °F52 °F (8:00 pm)46.4 °F (3:00 am)
Humidity71.8 %94 % (2:00 am)45 % (2:00 pm)
Barometer30.26 in30.30 in (10:00 am)30.19 in (1:00 am)
Wind Speed8.7 mph13.8 mph (5:00 am)
Weather ElementAverage
Visibility15 mi
Wind DirectionENE (57.8 °)

Weather ElementTotal
Precipitation---
Heating Degree Days5.1 (Base 65)
Growing Degree Days9.9 (Base 50)
Averaged from 27 records on October 12, 2013
WEATHER CONDITIONS BREAKOUT
WIND DIRECTION BREAKOUT
WEATHER BY HOUR - OCTOBER 12, 2013
[ °C ]   °F
Local TimeTemperatureDewpointHumidityBarometerVisibilityWind DirectionWind SpeedGust SpeedPrecipitationEventsConditions
1:00 AM55.4 °F51.8 °F88 %30.19 in15.0 miNNE (20°)9.2 mphPartly Cloudy
2:00 AM52.0 °F50.0 °F90 %30.20 in15.0 miNorth (10°)11.5 mphClear
2:00 AM51.8 °F50.0 °F94 %30.20 in15.0 miNorth (10°)12.7 mphPartly Cloudy
3:00 AM50.0 °F46.4 °F87 %30.21 in15.0 miNNE (20°)10.4 mphPartly Cloudy
4:00 AM50.0 °F46.4 °F87 %30.22 in15.0 miNNE (20°)11.5 mphPartly Cloudy
5:00 AM50.0 °F46.4 °F87 %30.23 in15.0 miNNE (20°)13.8 mphPartly Cloudy
6:00 AM48.2 °F46.4 °F93 %30.25 in15.0 miNNE (30°)9.2 mphPartly Cloudy
7:00 AM48.2 °F46.4 °F93 %30.26 in15.0 miNNE (30°)9.2 mphPartly Cloudy
8:00 AM49.0 °F47.0 °F89 %30.28 in15.0 miNNE (30°)10.4 mphClear
8:00 AM50.0 °F46.4 °F87 %30.28 in15.0 miNNE (30°)10.4 mphPartly Cloudy
9:00 AM51.8 °F48.2 °F88 %30.29 in15.0 miNNE (30°)11.5 mphPartly Cloudy
10:00 AM55.4 °F50.0 °F82 %30.30 in15.0 miNNE (30°)8.1 mphClear
11:00 AM59.0 °F50.0 °F72 %30.30 in15.0 miNNE (30°)5.8 mphClear
12:00 PM60.8 °F50.0 °F68 %30.30 in15.0 miNNE (20°)5.8 mphClear
1:00 PM66.2 °F50.0 °F56 %30.28 in15.0 miNE (50°)3.5 mphClear
2:00 PM67.0 °F51.0 °F45 %30.26 in15.0 miESE (120°)5.8 mph
2:00 PM68.0 °F50.0 °F52 %30.26 in15.0 miEast (100°)3.5 mphClear
3:00 PM69.8 °F51.8 °F53 %30.25 in15.0 miSE (140°)6.9 mphClear
4:00 PM71.6 °F51.8 °F50 %30.25 in15.0 miEast (90°)6.9 mphPartly Cloudy
5:00 PM71.6 °F50.0 °F46 %30.24 in15.0 miESE (110°)8.1 mphPartly Cloudy
6:00 PM69.8 °F51.8 °F53 %30.24 in15.0 miESE (110°)6.9 mphPartly Cloudy
7:00 PM66.2 °F51.8 °F60 %30.25 in15.0 miEast (80°)6.9 mphClear
8:00 PM66.0 °F52.0 °F51 %30.26 in15.0 miEast (80°)11.5 mph
8:00 PM66.2 °F51.8 °F60 %30.26 in15.0 miEast (80°)11.5 mphClear
9:00 PM62.6 °F51.8 °F68 %30.27 in15.0 miENE (70°)6.9 mphClear
10:00 PM62.6 °F51.8 °F68 %30.28 in15.0 miEast (100°)8.1 mphClear
11:00 PM60.8 °F51.8 °F72 %30.29 in15.0 miEast (100°)8.1 mphClear
Hourly data recorded from CYUL, located miles away from Montreal, Quebec







STORIES FROM OUR PARTNERS